TimePDT,TemperatureF,Dew PointF,Humidity,Sea Level PressureIn,VisibilityMPH,Wind Direction,Wind SpeedMPH,Gust SpeedMPH,PrecipitationIn,Events,Conditions,WindDirDegrees,DateUTC
12:05 AM,53.6,51.8,94,29.85,3.0,West,8.1,-,0.01,Rain,Light Rain,260,2012-10-28 07:05:00
12:53 AM,53.1,50.0,89,29.86,6.0,SW,4.6,-,0.01,,Overcast,230,2012-10-28 07:53:00
1:53 AM,53.1,51.1,93,29.88,3.0,SSW,3.5,-,N/A,,Overcast,200,2012-10-28 08:53:00
1:59 AM,53.6,50.0,88,29.88,1.8,WSW,4.6,-,0.00,Rain,Light Rain,240,2012-10-28 08:59:00
2:16 AM,53.6,50.0,88,29.89,2.0,WSW,4.6,-,0.00,Rain,Light Rain,250,2012-10-28 09:16:00
2:34 AM,53.6,51.8,94,29.89,1.2,SSW,4.6,-,0.01,Rain,Light Rain,200,2012-10-28 09:34:00
2:45 AM,53.6,50.0,88,29.90,2.0,WSW,6.9,-,0.02,Rain,Light Rain,240,2012-10-28 09:45:00
2:53 AM,53.1,50.0,89,29.90,2.5,SW,6.9,-,0.02,,Overcast,220,2012-10-28 09:53:00
3:12 AM,53.6,50.0,88,29.90,6.0,WSW,6.9,-,0.00,,Overcast,240,2012-10-28 10:12:00
3:17 AM,51.8,50.0,94,29.90,1.8,SW,5.8,-,0.00,Rain,Light Rain,230,2012-10-28 10:17:00
3:24 AM,51.8,51.8,100,29.90,0.8,West,3.5,-,0.02,Rain,Light Rain,260,2012-10-28 10:24:00
3:36 AM,51.8,50.0,94,29.91,1.2,WSW,6.9,-,0.04,Rain,Light Rain,250,2012-10-28 10:36:00
3:43 AM,51.8,50.0,94,29.90,2.0,WSW,4.6,-,0.04,Rain,Light Rain,250,2012-10-28 10:43:00
3:53 AM,52.0,50.0,93,29.91,6.0,WSW,4.6,-,0.04,,Overcast,240,2012-10-28 10:53:00
4:03 AM,51.8,50.0,94,29.91,6.0,SW,4.6,-,N/A,,Overcast,220,2012-10-28 11:03:00
4:19 AM,51.8,50.0,94,29.91,1.8,SW,4.6,-,0.00,Rain,Light Rain,230,2012-10-28 11:19:00
4:21 AM,51.8,50.0,94,29.91,1.2,WSW,5.8,-,0.00,Rain,Light Rain,240,2012-10-28 11:21:00
4:30 AM,51.8,50.0,94,29.91,1.5,WSW,4.6,-,0.02,Rain,Light Rain,240,2012-10-28 11:30:00
4:37 AM,51.8,50.0,94,29.91,2.0,SW,4.6,-,0.02,,Overcast,220,2012-10-28 11:37:00
4:42 AM,51.8,50.0,94,29.91,1.2,SW,5.8,-,0.02,Rain,Light Rain,230,2012-10-28 11:42:00
4:53 AM,52.0,50.0,93,29.91,1.5,West,6.9,-,0.03,Rain,Light Rain,260,2012-10-28 11:53:00
5:00 AM,51.8,50.0,94,29.91,3.0,WSW,3.5,-,0.00,,Overcast,240,2012-10-28 12:00:00
5:09 AM,51.8,50.0,94,29.91,7.0,WSW,3.5,-,0.00,,Overcast,240,2012-10-28 12:09:00
5:44 AM,51.8,48.2,88,29.92,3.0,SW,3.5,-,0.00,,Overcast,220,2012-10-28 12:44:00
5:50 AM,51.8,48.2,88,29.92,1.8,West,3.5,-,0.00,Rain,Light Rain,270,2012-10-28 12:50:00
5:53 AM,52.0,48.9,89,29.92,1.5,West,5.8,-,0.00,Rain,Light Rain,260,2012-10-28 12:53:00
5:57 AM,51.8,48.2,88,29.92,2.0,West,5.8,-,0.00,Rain,Light Rain,270,2012-10-28 12:57:00
6:11 AM,51.8,48.2,88,29.91,3.0,Calm,Calm,-,0.00,,Overcast,0,2012-10-28 13:11:00
6:33 AM,51.8,48.2,88,29.91,4.0,Calm,Calm,-,0.00,,Overcast,0,2012-10-28 13:33:00
6:53 AM,51.1,48.9,92,29.92,2.5,West,3.5,-,0.00,Rain,Light Rain,260,2012-10-28 13:53:00
7:06 AM,51.8,48.2,88,29.92,6.0,Calm,Calm,-,0.00,,Overcast,0,2012-10-28 14:06:00
7:53 AM,50.0,48.0,93,29.92,1.8,SE,3.5,-,0.00,,Overcast,130,2012-10-28 14:53:00
7:56 AM,50.0,48.2,94,29.92,0.8,Calm,Calm,-,N/A,,Overcast,0,2012-10-28 14:56:00
8:07 AM,50.0,48.2,94,29.92,0.2,Calm,Calm,-,N/A,Fog,Fog,0,2012-10-28 15:07:00
8:17 AM,50.0,48.2,94,29.92,0.8,Calm,Calm,-,N/A,,Overcast,0,2012-10-28 15:17:00
8:20 AM,50.0,48.2,94,29.92,1.5,Calm,Calm,-,N/A,,Overcast,0,2012-10-28 15:20:00
8:35 AM,50.0,48.2,94,29.93,3.0,Calm,Calm,-,N/A,,Overcast,0,2012-10-28 15:35:00
8:53 AM,51.1,48.9,92,29.94,4.0,Calm,Calm,-,N/A,,Overcast,0,2012-10-28 15:53:00
9:10 AM,51.8,48.2,88,29.94,3.0,Calm,Calm,-,N/A,,Overcast,0,2012-10-28 16:10:00
9:18 AM,51.8,50.0,94,29.95,3.0,Calm,Calm,-,N/A,,Overcast,0,2012-10-28 16:18:00
9:53 AM,52.0,50.0,93,29.95,4.0,Calm,Calm,-,N/A,,Overcast,0,2012-10-28 16:53:00
10:09 AM,51.8,50.0,94,29.94,5.0,South,3.5,-,N/A,,Overcast,180,2012-10-28 17:09:00
10:18 AM,51.8,48.2,88,29.94,5.0,South,3.5,-,N/A,,Overcast,180,2012-10-28 17:18:00
10:33 AM,53.6,51.8,94,29.93,5.0,South,3.5,-,N/A,,Overcast,190,2012-10-28 17:33:00
10:42 AM,53.6,50.0,88,29.93,5.0,South,4.6,-,N/A,,Overcast,190,2012-10-28 17:42:00
10:53 AM,53.1,50.0,89,29.94,5.0,South,5.8,-,N/A,,Overcast,180,2012-10-28 17:53:00
11:09 AM,53.6,50.0,88,29.94,5.0,South,5.8,-,N/A,,Overcast,180,2012-10-28 18:09:00
11:31 AM,53.6,50.0,88,29.93,5.0,Calm,Calm,-,N/A,,Overcast,0,2012-10-28 18:31:00
11:47 AM,53.6,50.0,88,29.93,5.0,SSW,4.6,-,N/A,,Overcast,210,2012-10-28 18:47:00
11:53 AM,53.1,50.0,89,29.94,4.0,South,5.8,-,N/A,,Overcast,190,2012-10-28 18:53:00
12:03 PM,53.6,50.0,88,29.93,2.0,South,3.5,-,N/A,,Overcast,190,2012-10-28 19:03:00
12:13 PM,53.6,50.0,88,29.93,1.2,SSW,3.5,-,N/A,,Overcast,210,2012-10-28 19:13:00
12:24 PM,53.6,51.8,94,29.93,2.0,SW,4.6,-,0.00,,Overcast,220,2012-10-28 19:24:00
12:27 PM,53.6,51.8,94,29.93,1.8,South,6.9,-,0.00,,Overcast,190,2012-10-28 19:27:00
12:36 PM,53.6,51.8,94,29.93,1.2,South,5.8,-,0.01,Rain,Light Rain,180,2012-10-28 19:36:00
12:39 PM,53.6,51.8,94,29.93,2.0,South,6.9,-,0.01,,Overcast,180,2012-10-28 19:39:00
12:51 PM,53.6,50.0,88,29.92,1.8,SSW,4.6,-,0.01,,Overcast,200,2012-10-28 19:51:00
12:52 PM,53.1,50.0,89,29.93,1.8,Variable,3.5,-,0.01,,Overcast,0,2012-10-28 19:52:00
12:55 PM,53.6,50.0,88,29.92,2.5,SSW,5.8,-,N/A,,Overcast,200,2012-10-28 19:55:00
1:02 PM,53.6,50.0,88,29.92,5.0,SSW,6.9,-,N/A,,Overcast,200,2012-10-28 20:02:00
1:15 PM,53.6,51.8,94,29.92,5.0,Calm,Calm,-,N/A,,Overcast,0,2012-10-28 20:15:00
1:46 PM,53.6,50.0,88,29.91,6.0,South,6.9,-,N/A,,Mostly Cloudy,190,2012-10-28 20:46:00
1:53 PM,54.0,50.0,86,29.91,6.0,South,4.6,-,N/A,,Overcast,190,2012-10-28 20:53:00
2:00 PM,53.6,48.2,82,29.91,6.0,Variable,5.8,-,N/A,,Haze,0,2012-10-28 21:00:00
2:39 PM,53.6,48.2,82,29.90,5.0,Calm,Calm,-,N/A,,Haze,0,2012-10-28 21:39:00
2:53 PM,54.0,50.0,86,29.90,5.0,Calm,Calm,-,N/A,,Overcast,0,2012-10-28 21:53:00
3:13 PM,53.6,48.2,82,29.89,5.0,Calm,Calm,-,N/A,,Haze,0,2012-10-28 22:13:00
3:53 PM,54.0,48.9,83,29.88,5.0,Calm,Calm,-,N/A,,Haze,0,2012-10-28 22:53:00
4:53 PM,54.0,48.9,83,29.86,5.0,Calm,Calm,-,N/A,,Haze,0,2012-10-28 23:53:00
5:53 PM,53.1,48.9,86,29.85,5.0,Calm,Calm,-,0.00,,Overcast,0,2012-10-29 00:53:00
6:53 PM,52.0,50.0,93,29.82,4.0,East,4.6,-,0.00,Rain,Light Rain,80,2012-10-29 01:53:00
7:53 PM,52.0,50.0,93,29.81,5.0,Calm,Calm,-,0.02,Rain,Light Rain,0,2012-10-29 02:53:00
8:53 PM,52.0,50.0,93,29.77,6.0,ENE,4.6,-,0.00,,Overcast,60,2012-10-29 03:53:00
9:53 PM,51.1,48.9,92,29.75,3.0,NNE,5.8,-,0.04,Rain,Light Rain,30,2012-10-29 04:53:00
10:32 PM,51.8,48.2,88,29.74,7.0,Calm,Calm,-,0.00,,Overcast,0,2012-10-29 05:32:00
10:53 PM,51.1,48.0,89,29.73,5.0,ENE,4.6,-,0.00,,Overcast,60,2012-10-29 05:53:00
11:53 PM,51.1,48.0,89,29.70,5.0,East,5.8,-,0.00,,Overcast,90,2012-10-29 06:53:00